{"data":{"norad_id":57463,"epoch":"2026-05-25T04:00:03.998880Z","epoch_age_seconds":70833,"freshness":"FRESH","line1":"1 57463U 23107G   26145.16671295  .00554137  00000+0  97184-2 0  9998","line2":"2 57463  43.0007 263.1273 0001401 270.7475 163.9756 15.47742364  5851","mean_motion":15.47742364,"eccentricity":0.0001401,"inclination_deg":43.0007,"raan_deg":263.1273,"arg_perigee_deg":270.7475,"mean_anomaly_deg":163.9756,"bstar":0.0097184,"rev_number":585,"period_min":93.038740393359,"perigee_km":422.37919262277,"apogee_km":424.28496425855,"semimajor_km":6801.4690784407,"source":"CELESTRAK","updated_at":"2026-05-25T13:38:18.324329Z"}}